Seldovia, AK

1:14 AM AKST on December 17, 2017 (GMT -0900)
Seldovia

Weather History for PASO - November, 2012

Change the Weather History Date:

Monday, November 12, 2012

  Actual Average (PAHO) Record (PAHO)
Temperature  
Mean Temperature 34 °F -  
Max Temperature 39 °F 35 °F 54 °F (2014)
Min Temperature 30 °F 23 °F 2 °F (1990)
Degree Days  
Heating Degree Days 30    
Moisture  
Dew Point 33 °F    
Average Humidity 90    
Maximum Humidity 100    
Minimum Humidity 79    
Precipitation  
Precipitation 0.00 in - - ()
Sea Level Pressure  
Sea Level Pressure 29.94 in    
Wind  
Wind Speed 1 mph (SSE)    
Max Wind Speed 7 mph    
Max Gust Speed -    
Visibility 10 miles    
Events      
Averages and records for this station are not official NWS values.
T = Trace of Precipitation, MM = Missing Value Source: NWS Daily Summary

Daily Weather History Graph

Daily Weather History Graph

Search for Another Location

Airport or City:

Trip Planner

Search our weather history database for the weather conditions in past years. The results will help you decide how hot, cold, wet, or windy it might be!

Date:

Astronomy

Nov. 12, 2012 Rise Set
Actual Time 8:55 AM AKST 4:45 PM AKST
Civil Twilight 8:08 AM AKST 5:32 PM AKST
Nautical Twilight 7:18 AM AKST 6:23 PM AKST
Astronomical Twilight 6:30 AM AKST 7:11 PM AKST
Moon 7:24 AM AKST (11/12) 4:03 PM AKST (11/12)
Length of Visible Light 9h 24m
Length of Day
7h 49m
Waning Crescent, 2% of the Moon is Illuminated
Nov 12
Waning Crescent
Nov 13
New
Nov 20
First Quarter
Nov 28
Full
Dec 6
Last Quarter

Hourly Weather History & Observations

Time (AKST) Temp. Windchill Dew Point Humidity Pressure Visibility Wind Dir Wind Speed Gust Speed Precip Events Conditions
12:53 AM 33.1 °F - 30.9 °F 92% 29.81 in 10.0 mi Calm Calm - N/A   Clear
1:53 AM 33.1 °F - 32.0 °F 96% 29.83 in 10.0 mi Calm Calm - N/A   Clear
3:04 AM 33.8 °F 30.8 °F 33.8 °F 100% 29.84 in 10.0 mi South 3.5 mph - N/A   Mostly Cloudy
3:53 AM 34.0 °F - 32.0 °F 92% 29.84 in 10.0 mi Calm Calm - N/A   Partly Cloudy
4:20 AM 33.8 °F - 32.0 °F 93% 29.84 in 10.0 mi Calm Calm - N/A   Mostly Cloudy
4:53 AM 34.0 °F - 32.0 °F 92% 29.86 in 10.0 mi Calm Calm - N/A   Overcast
5:53 AM 37.0 °F - 35.1 °F 93% 29.87 in 10.0 mi Calm Calm - N/A   Overcast
6:53 AM 39.0 °F 35.7 °F 36.0 °F 89% 29.88 in 10.0 mi Variable 4.6 mph - N/A   Overcast
7:53 AM 39.9 °F 35.1 °F 35.1 °F 83% 29.89 in 10.0 mi Variable 6.9 mph - N/A   Overcast
8:53 AM 39.0 °F 34.0 °F 35.1 °F 86% 29.92 in 10.0 mi Variable 6.9 mph - N/A   Overcast
9:53 AM 39.0 °F 34.0 °F 34.0 °F 82% 29.93 in 10.0 mi Variable 6.9 mph - N/A   Overcast
10:53 AM 39.0 °F 35.7 °F 34.0 °F 82% 29.94 in 10.0 mi Variable 4.6 mph - N/A   Overcast
11:53 AM 39.9 °F 36.7 °F 34.0 °F 79% 29.95 in 10.0 mi Variable 4.6 mph - N/A   Overcast
12:53 PM 39.9 °F 37.8 °F 34.0 °F 79% 29.96 in 10.0 mi SE 3.5 mph - N/A   Overcast
1:53 PM 39.9 °F - 35.1 °F 83% 29.96 in 10.0 mi Calm Calm - N/A   Overcast
2:53 PM 39.0 °F - 36.0 °F 89% 29.96 in 10.0 mi Calm Calm - N/A   Overcast
3:38 PM 37.4 °F - 35.6 °F 93% 29.96 in 10.0 mi Calm Calm - N/A   Scattered Clouds
3:53 PM 37.0 °F - 35.1 °F 93% 29.97 in 10.0 mi Calm Calm - N/A   Scattered Clouds
4:06 PM 37.4 °F - 35.6 °F 93% 29.97 in 10.0 mi Calm Calm - N/A   Mostly Cloudy
4:53 PM 37.0 °F - 34.0 °F 89% 29.99 in 10.0 mi Calm Calm - N/A   Mostly Cloudy
5:53 PM 35.1 °F - 33.1 °F 92% 30.00 in 10.0 mi Calm Calm - N/A   Scattered Clouds
6:15 PM 35.6 °F - 32.0 °F 87% 30.00 in 10.0 mi Calm Calm - N/A   Mostly Cloudy
6:53 PM 33.1 °F - 30.9 °F 92% 30.01 in 10.0 mi Calm Calm - N/A   Overcast
7:16 PM 33.8 °F - 30.2 °F 87% 30.02 in 10.0 mi Calm Calm - N/A   Mostly Cloudy
7:25 PM 32.0 °F - 30.2 °F 93% 30.01 in 10.0 mi Calm Calm - N/A   Scattered Clouds
7:53 PM 32.0 °F - 30.0 °F 92% 30.01 in 10.0 mi Calm Calm - N/A   Clear
8:53 PM 30.9 °F - 28.9 °F 92% 30.01 in 10.0 mi Calm Calm - N/A   Clear
9:53 PM 30.0 °F - 28.0 °F 92% 30.02 in 8.0 mi Calm Calm - N/A   Clear
10:53 PM 30.0 °F - 28.0 °F 92% 30.01 in 10.0 mi Calm Calm - N/A   Clear
11:53 PM 30.0 °F - 28.0 °F 92% 30.02 in 10.0 mi Calm Calm - N/A   Clear